GW6805 Weather Reports


time (UTC)temp
C
wind
direction
speed
KPH
gust
KPH
rain 1hr
cm
rain 24hr
cm
rain mn
cm
humidity
%
barometer
mb
20260505041608 14 226 1.6 3.2 0.00 0.00 0.00 94 1013.3
20260505040905 15 45 0.0 4.8 0.00 0.00 0.00 94
20260505040106 14 226 1.6 4.8 0.00 0.00 0.00 94 1013.2
20260505040027 15 45 0.0 1.6 0.00 0.00 0.00 94
20260505035405 15 45 0.0 1.6 0.00 0.00 0.00 94
20260505034513 15 226 0.0 1.6 0.00 0.00 0.00 94 1013.2
20260505034505 15 45 1.6 4.8 0.00 0.00 0.00 94
20260505033605 15 45 1.6 4.8 0.00 0.00 0.00 94
20260505033108 15 226 0.0 4.8 0.00 0.00 0.00 94 1013.3
20260505032727 16 45 1.6 3.2 0.00 0.00 0.00 95
20260505031827 16 45 1.6 3.2 0.00 0.00 0.00 95
20260505031551 15 226 0.0 3.2 0.00 0.00 0.00 95 1013.3
20260505030926 15 45 1.6 4.8 0.00 0.00 0.00 95
20260505030027 15 45 3.2 4.8 0.00 0.00 0.00 94
20260505030004 15 226 1.6 4.8 0.00 0.00 0.00 95 1013.4
20260505025405 15 45 3.2 4.8 0.00 0.00 0.00 94
20260505024557 15 226 1.6 4.8 0.00 0.00 0.00 94 1013.4
20260505024506 15 45 1.6 4.8 0.00 0.00 0.00 94
20260505023605 15 45 1.6 4.8 0.00 0.00 0.00 94
20260505023043 15 226 1.6 4.8 0.00 0.00 0.00 94 1013.6
20260505022726 16 45 3.2 4.8 0.00 0.00 0.00 94
20260505021826 16 45 3.2 4.8 0.00 0.00 0.00 94
20260505021610 15 226 3.2 4.8 0.00 0.00 0.00 94 1013.7
20260505020906 16 45 4.8 11.3 0.00 0.00 0.00 94
20260505020022 16 226 4.8 11.3 0.00 0.00 0.00 94 1013.8
20260505020005 16 360 12.9 12.9 0.00 0.00 0.00 94
20260505015429 16 360 12.9 12.9 0.00 0.00 0.00 94
20260505014522 16 192 6.4 12.9 0.00 0.00 0.00 94 1013.9
20260505014505 16 67 3.2 6.4 0.00 0.00 0.00 94
20260505013605 16 67 3.2 6.4 0.00 0.00 0.00 94
20260505013104 16 275 3.2 6.4 0.00 0.00 0.00 94 1014.1
20260505012705 16 67 3.2 4.8 0.00 0.00 0.00 95
20260505011805 16 67 3.2 4.8 0.00 0.00 0.00 95
20260505011525 16 275 1.6 4.8 0.00 0.00 0.00 95 1014.2
20260505010926 16 67 3.2 3.2 0.00 0.00 0.00 94
20260505010005 16 67 0.0 3.2 0.00 0.00 0.00 94
20260505010001 16 275 1.6 3.2 0.00 0.00 0.00 94 1014.3
20260505005405 16 67 0.0 3.2 0.00 0.00 0.00 94
20260505004516 16 275 0.0 3.2 0.00 0.00 0.00 94 1014.3
20260505004506 16 67 3.2 4.8 0.00 0.00 0.00 94
20260505003605 16 67 3.2 4.8 0.00 0.00 0.00 94
20260505003049 16 275 3.2 4.8 0.00 0.00 0.00 94 1014.5
20260505002705 16 180 0.0 6.4 0.00 0.00 0.00 94
20260505001826 16 180 0.0 6.4 0.00 0.00 0.00 94
20260505001606 16 184 0.0 6.4 0.00 0.00 0.00 94 1014.4
20260505000905 16 67 1.6 6.4 0.00 0.00 0.00 94
20260505000039 16 163 3.2 6.4 0.00 0.00 0.00 94 1014.6
20260505000005 15 45 4.8 4.8 0.00 0.00 0.00 94
20260504235426 15 45 4.8 4.8 0.00 0.00 0.00 94
20260504234639 15 34 1.6 4.8 0.00 0.00 0.00 94 1014.9
20260504234507 15 292 1.6 4.8 0.00 0.00 0.00 94
20260504233605 15 292 1.6 4.8 0.00 0.00 0.00 94
20260504233020 15 29 1.6 4.8 0.00 0.00 0.00 94 1014.9
20260504232705 15 292 4.8 8.0 0.00 0.00 0.00 93
20260504231805 15 292 4.8 8.0 0.00 0.00 0.00 93
20260504231610 15 29 4.8 8.0 0.00 0.00 0.00 93 1014.9
20260504230905 16 225 4.8 4.8 0.00 0.00 0.00 93
20260504230038 16 218 3.2 4.8 0.00 0.00 0.00 93 1014.9
20260504230006 16 225 3.2 4.8 0.00 0.00 0.00 93
20260504225408 16 225 3.2 4.8 0.00 0.00 0.00 93
20260504224544 16 218 1.6 4.8 0.00 0.00 0.00 93 1014.7
20260504224505 16 225 4.8 6.4 0.00 0.00 0.00 93
20260504223605 16 225 4.8 6.4 0.00 0.00 0.00 93
20260504223104 16 218 3.2 6.4 0.00 0.00 0.00 93 1014.7
20260504222705 16 225 3.2 6.4 0.00 0.00 0.00 93
20260504221805 16 225 3.2 6.4 0.00 0.00 0.00 93
20260504221513 16 218 1.6 6.4 0.00 0.00 0.00 93 1014.5
20260504220905 16 225 0.0 1.6 0.00 0.00 0.00 93
20260504220050 16 218 0.0 1.6 0.00 0.28 0.00 93 1014.6
20260504220026 16 225 1.6 6.4 0.00 0.00 0.00 93
20260504215405 16 225 1.6 6.4 0.00 0.00 0.00 93
20260504214517 16 218 0.0 6.4 0.00 0.28 0.00 93 1014.4
20260504214506 16 22 4.8 11.3 0.00 0.00 0.00 93
20260504213606 16 22 4.8 11.3 0.00 0.00 0.00 93
20260504213056 16 209 4.8 11.3 0.00 0.28 0.00 93 1014.6
20260504212706 16 247 4.8 12.9 0.00 0.15 0.00 93
20260504211806 16 247 4.8 12.9 0.00 0.15 0.00 93
20260504211504 16 203 6.4 12.9 0.00 0.28 0.00 93 1014.6
20260504210906 16 225 1.6 6.4 0.00 0.28 0.00 93
20260504210110 16 234 3.2 6.4 0.00 0.28 0.00 93 1014.6
20260504210027 16 225 0.0 3.2 0.00 0.28 0.00 93
20260504205405 16 225 0.0 3.2 0.00 0.28 0.00 93
20260504204548 16 234 0.0 3.2 0.00 0.28 0.00 93 1014.5
20260504204505 16 225 1.6 4.8 0.00 0.28 0.00 92
20260504203605 16 225 1.6 4.8 0.00 0.28 0.00 92
20260504203021 16 234 1.6 4.8 0.00 0.28 0.00 92 1014.6
20260504202705 16 225 1.6 3.2 0.00 0.28 0.00 91
20260504201827 16 225 1.6 3.2 0.00 0.28 0.00 91
20260504201616 16 234 0.0 3.2 0.00 0.28 0.00 91 1014.5
20260504200905 16 225 3.2 4.8 0.00 0.28 0.00 91
20260504200045 16 234 1.6 4.8 0.00 0.28 0.00 91 1014.4
20260504200028 17 225 3.2 6.4 0.00 0.28 0.00 91
20260504195405 17 225 3.2 6.4 0.00 0.28 0.00 91
20260504194611 16 234 3.2 6.4 0.00 0.28 0.00 91 1014.0
20260504194505 17 225 4.8 9.7 0.00 0.28 0.00 91
20260504193605 17 225 4.8 9.7 0.00 0.28 0.00 91
20260504193113 17 234 3.2 9.7 0.00 0.28 0.00 91 1013.9
20260504192705 17 67 8.0 9.7 0.00 0.28 0.00 91
20260504191808 17 67 8.0 9.7 0.00 0.28 0.00 91
20260504191549 17 211 4.8 9.7 0.00 0.28 0.00 91 1013.7
20260504190906 17 292 11.3 11.3 0.00 0.28 0.00 90
20260504190005 17 221 8.0 11.3 0.00 0.28 0.00 90 1013.6
20260504185405 17 315 9.7 11.3 0.00 0.28 0.00 89
20260504184556 17 238 6.4 11.3 0.00 0.28 0.00 89 1013.5
20260504184505 18 67 12.9 17.7 0.00 0.28 0.00 88
20260504183629 18 67 12.9 17.7 0.00 0.28 0.00 88
20260504183044 17 227 8.0 17.7 0.00 0.28 0.00 88 1013.4
20260504182707 18 225 14.5 22.5 0.00 0.28 0.00 87
20260504181805 18 225 14.5 22.5 0.00 0.28 0.00 87
20260504181509 18 202 11.3 22.5 0.00 0.28 0.00 87 1013.2
20260504180905 18 225 11.3 22.5 0.00 0.28 0.00 86
20260504180214 18 218 11.3 22.5 0.00 0.28 0.00 86 1013.3
20260504180027 18 180 11.3 27.4 0.00 0.28 0.00 85
20260504175405 18 180 11.3 27.4 0.00 0.28 0.00 85
20260504174550 18 232 12.9 27.4 0.00 0.28 0.00 85 1013.4
20260504174526 19 180 17.7 29.0 0.00 0.28 0.00 84
20260504173605 19 180 17.7 29.0 0.00 0.28 0.00 84
20260504173036 18 200 19.3 29.0 0.00 0.28 0.00 84 1013.4
20260504172706 19 90 17.7 24.1 0.00 0.28 0.00 84
20260504171805 19 90 17.7 24.1 0.00 0.28 0.00 84
20260504171610 18 244 19.3 24.1 0.00 0.28 0.00 84 1013.6
20260504170906 20 22 19.3 32.2 0.00 0.28 0.00 80
20260504150905 21 360 16.1 30.6 0.00 0.28 0.00 80
20260504140927 21 270 25.7 29.0 0.00 0.28 0.00 81
20260504120113 19 235 16.1 22.5 0.00 0.28 0.00 85 1014.7
20260504081805 19 135 1.6 9.7 0.00 0.33 0.00 90
20260504081610 19 150 1.6 9.7 0.00 0.33 0.00 90 1014.2
20260504080905 18 135 0.0 8.0 0.00 0.33 0.00 93
20260504070107 17 42 4.8 8.0 0.00 0.33 0.00 96 1013.7
20260504060106 16 140 3.2 6.4 0.00 0.33 0.00 96 1014.2
20260504050125 14 140 1.6 3.2 0.00 0.33 0.00 95 1014.0